STARLINK-5641, 55359

Orbit data source: Space-Track

STARLINK-5641, 55359 is a payload satellite owned by SpaceX/Seattle (US) in LEO that was launched on Thu, 26 Jan 2023 UTC via an FALCON 9 launch vehicle from the Air Force Eastern Test Range (AFETR). Payload-class satellites include a variety of spacecraft equipped with specific instruments for various scientific and technological missions. These include communications satellites like Starlink; space stations such as the ISS; scientific satellites like the Hubble; Earth observation satellites from companies like Planet Labs, Umbra, and HawkEye 360; GPS; miniature CubeSats for education and research; and military/defense satellites.

Loading next visibility...
Identifier
55359, 2023-013AE
Orbit
LEO
Country
Flag of USUS
Related business
Manufacturer
SpaceX/Seattle
Mission
Operational Commercial Communications
Bus & Motor
STARLINK, Unknown motor
Mass
305 kg wet, ~290 kg dry
Launch date (UTC)
2023-01-26 (3 years ago)
Launch vehicle
FALCON 9
Launch site
Air Force Eastern Test Range (AFETR)
Object type
Payload
Rocket body
Debris
Shape & HBR
Box + 1 Pan, 10.1 m
Radar Cross Section
13.562 m², Large (>1 m²)

Expand to show TLE details & history
Last TLE update: 2 days ago

TLE from 2 days ago
0 STARLINK-5641
1 55359U 23013AE  26171.15362744 -.00000431  00000-0 -61483-5 0  9992
2 55359  43.0087  88.1777 0001514 259.8413 100.2268 15.27575553187305
Epoch: 2026-06-20T03:41Z
TLE epoch observation values (Epoch: 2026-06-20T03:41:13.410Z)
Latitude
-0.00003°
Longitude
124.49945°
Altitude
483.023 km
Speed
7.626 km/s
True Right ascension
05h 52m 42s
True Declination
0° 00' 00"
Sunlit
Object was in daylight at epoch
Visualization orbit readout
Latitude
Unknown
Longitude
Unknown
Altitude
Unknown
Speed
Unknown
Apparent Right ascension
Unknown
Apparent Declination
Unknown
Sunlit
N/A
Visualization observer readout
Local Sidereal Time
23:27:23
Azimuth
Unknown
Elevation
Unknown
Doppler factor
Unknown
Orbital elements
Apogee altitude
486.045 km
Perigee altitude
483.967 km
Semi-major axis
6,863.143 km
Eccentricity
0.00015
Inclination
43.0087°
RAAN
88.1777°
Arg. of periapsis
259.8413°
True anomaly
100.24387°
Mean anomaly
100.2268°
Eccentric anomaly
100.23534°
Mean motion
3.81732 °/min
Orbital period
94.31 mins
BSTAR
-0.0000061483
Loading maneuver chart data...
Computing Atmospheric mass density...
Loading historical data...
Loading historical data...
Loading historical data...
Loading historical data...
Loading historical data...
Loading historical data...
Loading historical data...

Documentation

Showing up to 5 results
|